TimeCST,TemperatureF,Dew PointF,Humidity,Sea Level PressureIn,VisibilityMPH,Wind Direction,Wind SpeedMPH,Gust SpeedMPH,PrecipitationIn,Events,Conditions,WindDirDegrees,DateUTC
12:53 AM,35.1,30.0,82,30.39,10.0,Calm,Calm,-,N/A,,Clear,0,2012-11-17 06:53:00
1:53 AM,35.1,30.0,82,30.39,9.0,Calm,Calm,-,N/A,,Clear,0,2012-11-17 07:53:00
2:53 AM,30.0,26.1,85,30.39,10.0,Calm,Calm,-,N/A,,Clear,0,2012-11-17 08:53:00
3:53 AM,32.0,28.9,88,30.39,8.0,Calm,Calm,-,N/A,,Clear,0,2012-11-17 09:53:00
4:53 AM,32.0,28.9,88,30.40,9.0,Calm,Calm,-,N/A,,Clear,0,2012-11-17 10:53:00
5:53 AM,33.1,28.9,85,30.41,10.0,Calm,Calm,-,N/A,,Clear,0,2012-11-17 11:53:00
6:53 AM,32.0,28.9,88,30.43,8.0,Calm,Calm,-,N/A,,Clear,0,2012-11-17 12:53:00
7:53 AM,35.1,30.9,85,30.43,9.0,Calm,Calm,-,N/A,,Clear,0,2012-11-17 13:53:00
8:53 AM,44.1,34.0,68,30.44,10.0,Calm,Calm,-,N/A,,Clear,0,2012-11-17 14:53:00
9:53 AM,51.1,33.1,50,30.44,10.0,South,6.9,-,N/A,,Clear,170,2012-11-17 15:53:00
10:53 AM,55.9,25.0,30,30.43,10.0,South,13.8,19.6,N/A,,Clear,170,2012-11-17 16:53:00
11:53 AM,59.0,19.0,21,30.41,10.0,SSW,10.4,19.6,N/A,,Clear,200,2012-11-17 17:53:00
12:53 PM,61.0,19.0,20,30.37,10.0,SSE,9.2,-,N/A,,Clear,150,2012-11-17 18:53:00
1:53 PM,62.1,19.0,19,30.34,10.0,South,10.4,17.3,N/A,,Clear,180,2012-11-17 19:53:00
2:53 PM,63.0,19.0,18,30.31,10.0,South,13.8,-,N/A,,Clear,170,2012-11-17 20:53:00
3:53 PM,62.1,21.0,21,30.32,10.0,South,11.5,-,N/A,,Clear,170,2012-11-17 21:53:00
4:53 PM,60.1,25.0,26,30.32,10.0,South,5.8,-,N/A,,Clear,170,2012-11-17 22:53:00
5:53 PM,55.9,26.1,32,30.31,10.0,SSE,3.5,-,N/A,,Clear,150,2012-11-17 23:53:00
6:53 PM,54.0,27.0,35,30.30,10.0,SSE,3.5,-,N/A,,Clear,160,2012-11-18 00:53:00
7:53 PM,44.1,28.9,55,30.31,10.0,Calm,Calm,-,N/A,,Clear,0,2012-11-18 01:53:00
8:53 PM,42.1,28.9,60,30.30,10.0,Calm,Calm,-,N/A,,Clear,0,2012-11-18 02:53:00
9:53 PM,42.1,28.9,60,30.31,10.0,Calm,Calm,-,N/A,,Clear,0,2012-11-18 03:53:00
10:53 PM,39.0,30.0,70,30.31,10.0,Calm,Calm,-,N/A,,Clear,0,2012-11-18 04:53:00
11:53 PM,41.0,30.0,65,30.32,10.0,Calm,Calm,-,N/A,,Clear,0,2012-11-18 05:53:00